EA3E-2 Weather Reports


time (UTC)temp
C
wind
direction
speed
KPH
gust
KPH
rain 1hr
cm
rain 24hr
cm
rain mn
cm
humidity
%
barometer
mb
20260507130402 18 130 16.1 29.0 0.00 1.78 0.00 68 1012.6
20260507125502 18 133 14.5 27.4 0.00 1.78 0.00 67 1012.7
20260507123702 18 123 14.5 27.4 0.00 1.78 0.00 69 1012.7
20260507121903 18 133 11.3 20.9 0.00 1.78 0.00 71 1012.7
20260507121002 18 131 11.3 22.5 0.00 1.78 0.00 71 1012.6
20260507115202 18 127 11.3 25.7 0.00 1.78 0.00 73 1012.7
20260507113402 18 127 9.7 20.9 0.00 1.78 0.00 72 1012.9
20260507112502 18 126 8.0 19.3 0.00 2.08 0.00 73 1012.9
20260507111602 18 127 9.7 19.3 0.00 2.11 0.00 74 1012.9
20260507110702 18 133 8.0 19.3 0.00 2.11 0.00 72 1013.0
20260507104902 18 141 4.8 12.9 0.00 2.11 0.00 72 1012.9
20260507104003 18 144 4.8 16.1 0.00 2.11 0.00 73 1013.1
20260507103102 18 148 3.2 19.3 0.00 2.11 0.00 73 1013.3
20260507102202 18 128 4.8 8.0 0.00 2.11 0.00 74 1013.3
20260507101302 18 130 3.2 14.5 0.00 2.11 0.00 73 1013.4
20260507100402 18 128 0.0 12.9 0.00 2.11 0.00 75 1013.4
20260507095502 17 0 0.0 0.0 0.00 2.11 0.00 76 1013.4
20260507093702 17 99 1.6 4.8 0.00 2.11 0.00 76 1013.4
20260507092802 17 102 1.6 6.4 0.00 2.11 0.00 75 1013.4
20260507091902 17 145 1.6 9.7 0.00 2.11 0.00 75 1013.3
20260507091002 17 152 0.0 8.0 0.00 2.11 0.00 76 1013.4
20260507085202 16 151 0.0 6.4 0.00 2.11 0.00 77 1013.4
20260507084302 16 120 0.0 1.6 0.00 2.11 0.00 78 1013.5
20260507082502 16 120 0.0 3.2 0.00 2.11 0.00 76 1013.7
20260507081602 16 0 0.0 0.0 0.00 2.11 0.00 77 1013.8
20260507075802 15 192 0.0 4.8 0.00 2.11 0.00 80 1013.9
20260507074902 15 235 0.0 3.2 0.00 2.11 0.00 79 1013.8
20260507073102 15 0 0.0 0.0 0.00 2.11 0.00 80 1013.7
20260507072202 15 0 0.0 0.0 0.00 2.11 0.00 82 1013.6
20260507071302 13 0 0.0 0.0 0.00 2.11 0.00 84 1013.6
20260507065502 13 0 0.0 0.0 0.00 2.11 0.00 89 1013.6
20260507064602 12 0 0.0 0.0 0.00 2.11 0.00 90 1013.6
20260507063702 12 0 0.0 0.0 0.00 2.11 0.00 90 1013.5
20260507062802 12 230 0.0 1.6 0.00 2.11 0.00 91 1013.6
20260507061902 11 230 3.2 4.8 0.00 2.11 0.00 91 1013.3
20260507061002 11 230 3.2 4.8 0.00 2.11 0.00 91 1013.3
20260507054302 10 239 4.8 6.4 0.00 2.11 0.00 92 1013.2
20260507053402 10 244 1.6 6.4 0.00 2.11 0.00 91 1013.3
20260507052502 10 247 1.6 6.4 0.00 2.11 0.00 92 1013.1
20260507051602 10 248 3.2 4.8 0.00 2.11 0.00 92 1013.1
20260507050702 10 246 3.2 4.8 0.00 2.11 0.00 91 1013.1
20260507044902 10 232 3.2 8.0 0.00 2.11 0.00 91 1013.1
20260507043102 10 219 1.6 4.8 0.00 2.11 0.00 91 1013.0
20260507042202 10 243 3.2 4.8 0.00 2.11 0.00 91 1013.1
20260507041302 10 244 1.6 6.4 0.00 2.11 0.00 91 1013.0
20260507040402 10 0 0.0 0.0 0.00 2.11 0.00 91 1013.0
20260507035502 11 0 0.0 0.0 0.00 2.11 0.00 91 1013.0
20260507034602 11 0 0.0 0.0 0.00 2.11 0.00 91 1012.9
20260507033702 11 0 0.0 0.0 0.00 2.11 0.00 91 1013.0
20260507032802 11 0 0.0 0.0 0.00 2.11 0.00 91 1013.0
20260507031902 11 0 0.0 0.0 0.00 2.11 0.00 91 1012.9
20260507031002 11 0 0.0 0.0 0.00 2.11 0.00 90 1012.8
20260507023402 12 0 0.0 0.0 0.00 2.11 0.00 90 1013.0
20260507022503 12 0 0.0 0.0 0.00 2.11 0.00 90 1013.0
20260507021602 12 0 0.0 0.0 0.00 2.11 0.00 90 1013.1
20260507015802 12 0 0.0 0.0 0.00 2.11 0.00 90 1013.0
20260507014902 12 0 0.0 0.0 0.00 2.11 0.00 90 1012.9
20260507014002 12 0 0.0 0.0 0.00 2.11 0.00 89 1013.1
20260507013102 12 0 0.0 0.0 0.00 2.11 0.00 89 1013.2
20260507012202 12 0 0.0 0.0 0.00 2.11 0.00 89 1013.3
20260507011302 12 0 0.0 0.0 0.00 2.11 0.00 88 1013.3
20260507010402 12 0 0.0 0.0 0.00 2.11 0.00 88 1013.4
20260507005502 12 244 3.2 4.8 0.00 2.11 0.00 88 1013.5
20260507004602 12 244 3.2 6.4 0.00 2.11 0.00 88 1013.4
20260507003702 12 240 3.2 9.7 0.00 2.11 0.00 88 1013.7
20260507002802 12 238 0.0 9.7 0.00 2.11 0.00 89 1013.6
20260507001902 12 0 0.0 0.0 0.00 2.11 0.00 91 1013.7
20260507001002 12 0 0.0 0.0 0.00 2.11 0.00 91 1013.7
20260506235202 12 0 0.0 0.0 0.00 2.11 0.00 91 1013.8
20260506234302 12 0 0.0 0.0 0.00 2.11 0.00 91 1013.8
20260506233402 12 0 0.0 0.0 0.00 2.11 0.00 91 1013.8
20260506232502 12 0 0.0 0.0 0.00 2.11 0.00 91 1013.8
20260506231602 12 264 1.6 3.2 0.00 2.11 0.00 91 1013.9
20260506230702 12 254 3.2 6.4 0.00 2.11 0.00 91 1013.8
20260506225802 12 225 1.6 4.8 0.00 2.11 0.00 91 1013.9
20260506224002 12 0 0.0 0.0 0.00 2.11 0.00 91 1013.9
20260506223101 12 0 0.0 0.0 0.00 2.11 0.00 91 1014.0
20260506222202 12 0 0.0 0.0 0.00 2.11 0.00 91 1013.9
20260506221302 12 0 0.0 0.0 0.00 2.11 0.00 91 1013.9
20260506215502 12 268 3.2 6.4 0.00 2.11 2.11 91 1013.9
20260506214602 12 270 3.2 6.4 0.00 2.11 2.11 91 1013.9
20260506213702 12 274 0.0 6.4 0.00 2.11 2.11 91 1013.9
20260506212801 12 0 1.6 0.0 0.00 2.11 2.11 92 1013.8
20260506211902 12 277 1.6 4.8 0.00 2.11 2.11 92 1013.9
20260506211001 13 0 0.0 0.0 0.00 2.11 2.11 91 1013.8
20260506203402 13 0 0.0 0.0 0.00 2.11 2.11 91 1013.8
20260506202502 13 0 0.0 0.0 0.00 2.11 2.11 91 1013.8
20260506201601 13 0 0.0 0.0 0.00 2.11 2.11 91 1013.7
20260506200702 13 0 0.0 0.0 0.00 2.11 2.11 91 1013.6
20260506195801 13 280 1.6 3.2 0.00 2.11 2.11 91 1013.5
20260506194901 13 280 0.0 6.4 0.00 2.11 2.11 91 1013.3
20260506194002 13 279 1.6 4.8 0.00 2.11 2.11 91 1013.1
20260506193101 13 280 3.2 4.8 0.00 2.11 2.11 91 1013.1
20260506192202 13 280 3.2 6.4 0.00 2.11 2.11 91 1012.9
20260506191301 13 283 3.2 4.8 0.00 2.11 2.11 91 1012.9
20260506190401 13 288 4.8 9.7 0.00 2.11 2.11 91 1012.8
20260506185502 13 291 4.8 9.7 0.00 2.11 2.11 91 1012.8
20260506184602 13 283 4.8 12.9 0.00 2.11 2.11 91 1012.7
20260506183701 13 280 4.8 9.7 0.00 2.11 2.11 91 1012.6
20260506182802 13 301 6.4 12.9 0.00 2.11 2.11 91 1012.6
20260506181902 13 341 4.8 9.7 0.00 2.11 2.11 91 1012.4
20260506175201 13 0 0.0 0.0 0.03 2.11 2.11 90 1011.9
20260506172501 13 90 4.8 11.3 0.05 2.11 2.11 90 1011.6
20260506171601 13 99 4.8 9.7 0.05 2.11 2.11 89 1011.7
20260506170701 13 82 4.8 11.3 0.05 2.11 2.11 89 1011.4
20260506165801 13 14 4.8 8.0 0.03 2.08 2.11 89 1011.6
20260506164901 13 50 6.4 9.7 0.00 2.06 2.06 88 1011.8
20260506164001 13 63 4.8 9.7 0.00 2.06 2.06 88 1011.6
20260506163101 13 79 6.4 14.5 0.00 2.06 2.06 88 1011.6
20260506161301 13 71 12.9 19.3 0.89 2.06 2.06 87 1011.4
20260506160402 13 98 14.5 24.1 1.75 2.06 2.06 87 1011.4
20260506155501 13 89 16.1 25.7 1.75 2.06 2.06 89 1011.2
20260506154601 12 90 20.9 35.4 1.75 2.06 2.06 89 1011.2
20260506153701 12 62 17.7 30.6 1.75 2.06 2.06 90 1011.0
20260506152801 11 36 16.1 33.8 1.73 2.03 2.03 89 1010.8
20260506151001 13 1 14.5 43.5 0.33 0.79 0.79 83 1010.8
20260506145201 17 149 20.9 37.0 0.00 1.07 0.33 76 1009.5
20260506144302 17 147 20.9 37.0 0.00 1.65 0.33 75 1009.6
20260506143401 17 146 20.9 45.1 0.00 1.65 0.33 76 1009.7
20260506141601 17 129 19.3 33.8 0.00 1.65 0.33 75 1009.7
20260506140701 17 133 17.7 29.0 0.00 1.65 0.33 74 1010.1
20260506135801 17 126 14.5 30.6 0.00 1.65 0.33 75 1010.2
20260506134901 17 140 14.5 24.1 0.00 1.65 0.33 76 1010.5
20260506131301 17 147 14.5 25.7 0.00 1.65 0.33 76 1010.9